TimePST,TemperatureF,Dew PointF,Humidity,Sea Level PressureIn,VisibilityMPH,Wind Direction,Wind SpeedMPH,Gust SpeedMPH,PrecipitationIn,Events,Conditions,WindDirDegrees,DateUTC
12:15 AM,44.6,33.8,66,29.95,9.0,SSW,13.8,20.7,N/A,Rain,Light Rain,200,2013-02-25 08:15:00
12:35 AM,41.0,35.6,81,29.94,9.0,South,6.9,-,N/A,Rain,Light Rain,190,2013-02-25 08:35:00
12:55 AM,41.0,37.4,87,29.93,6.0,South,9.2,19.6,0.01,Rain,Light Rain,180,2013-02-25 08:55:00
1:15 AM,41.0,37.4,87,29.91,10.0,South,11.5,18.4,N/A,Rain,Light Rain,190,2013-02-25 09:15:00
1:35 AM,41.0,37.4,87,29.91,10.0,South,8.1,-,0.01,Rain,Light Rain,190,2013-02-25 09:35:00
2:15 AM,41.0,37.4,87,29.92,7.0,SW,6.9,-,0.02,Rain,Light Rain,220,2013-02-25 10:15:00
2:35 AM,41.0,39.2,93,29.93,5.0,SSW,6.9,-,0.03,Rain,Light Rain,210,2013-02-25 10:35:00
2:55 AM,41.0,39.2,93,29.95,8.0,SW,8.1,-,0.03,Rain,Light Rain,220,2013-02-25 10:55:00
3:15 AM,39.2,39.2,100,29.95,10.0,SW,8.1,-,N/A,,Mostly Cloudy,220,2013-02-25 11:15:00
3:35 AM,41.0,39.2,93,29.96,10.0,SSW,8.1,-,N/A,,Overcast,210,2013-02-25 11:35:00
3:55 AM,41.0,39.2,93,29.97,10.0,SSW,9.2,17.3,N/A,,Overcast,200,2013-02-25 11:55:00
4:15 AM,41.0,39.2,93,29.98,9.0,SW,5.8,-,N/A,,Overcast,220,2013-02-25 12:15:00
4:35 AM,41.0,39.2,93,29.98,10.0,SSW,8.1,-,N/A,,Overcast,210,2013-02-25 12:35:00
4:55 AM,41.0,39.2,93,29.99,10.0,SSW,6.9,-,N/A,,Overcast,210,2013-02-25 12:55:00
5:15 AM,41.0,39.2,93,30.00,10.0,SSW,5.8,-,N/A,Rain,Light Rain,210,2013-02-25 13:15:00
5:35 AM,41.0,39.2,93,30.01,10.0,SW,9.2,-,N/A,,Mostly Cloudy,220,2013-02-25 13:35:00
5:55 AM,39.2,39.2,100,30.01,10.0,SW,9.2,-,N/A,,Overcast,230,2013-02-25 13:55:00
6:15 AM,39.2,37.4,93,30.01,10.0,SSW,8.1,16.1,N/A,,Mostly Cloudy,210,2013-02-25 14:15:00
6:35 AM,39.2,37.4,93,30.02,10.0,SW,8.1,-,N/A,,Overcast,220,2013-02-25 14:35:00
6:55 AM,39.2,37.4,93,30.01,10.0,SW,10.4,17.3,N/A,,Mostly Cloudy,220,2013-02-25 14:55:00
7:15 AM,39.2,37.4,93,30.02,9.0,SSW,9.2,16.1,N/A,Rain,Light Rain,210,2013-02-25 15:15:00
7:55 AM,39.2,37.4,93,30.04,8.0,SW,11.5,-,0.01,Rain,Light Rain,230,2013-02-25 15:55:00
8:15 AM,39.2,37.4,93,30.05,10.0,SW,11.5,17.3,N/A,,Mostly Cloudy,230,2013-02-25 16:15:00
8:35 AM,39.2,37.4,93,30.06,10.0,SW,12.7,16.1,N/A,,Mostly Cloudy,230,2013-02-25 16:35:00
8:55 AM,39.2,37.4,93,30.07,10.0,WSW,9.2,18.4,N/A,Rain,Light Rain,240,2013-02-25 16:55:00
9:15 AM,39.2,37.4,93,30.07,9.0,WSW,11.5,19.6,N/A,Rain,Light Rain,240,2013-02-25 17:15:00
9:35 AM,39.2,37.4,93,30.08,8.0,WSW,11.5,21.9,N/A,Rain,Light Rain,240,2013-02-25 17:35:00
9:55 AM,41.0,39.2,93,30.09,10.0,WSW,10.4,17.3,N/A,,Mostly Cloudy,240,2013-02-25 17:55:00
10:15 AM,41.0,39.2,93,30.10,8.0,WSW,8.1,17.3,N/A,Rain,Light Rain,240,2013-02-25 18:15:00
10:35 AM,41.0,37.4,87,30.11,9.0,WSW,13.8,18.4,N/A,,Mostly Cloudy,250,2013-02-25 18:35:00
10:55 AM,42.8,37.4,81,30.10,10.0,WSW,13.8,21.9,N/A,,Mostly Cloudy,240,2013-02-25 18:55:00
11:15 AM,44.6,37.4,76,30.11,10.0,WSW,12.7,19.6,N/A,,Scattered Clouds,240,2013-02-25 19:15:00
11:35 AM,44.6,37.4,76,30.13,8.0,WSW,9.2,18.4,N/A,Rain,Light Rain,250,2013-02-25 19:35:00
11:55 AM,42.8,39.2,87,30.14,10.0,WSW,10.4,-,N/A,,Scattered Clouds,240,2013-02-25 19:55:00
12:15 PM,44.6,37.4,76,30.14,10.0,WSW,6.9,-,N/A,,Mostly Cloudy,250,2013-02-25 20:15:00
12:35 PM,44.6,37.4,76,30.14,10.0,West,11.5,17.3,N/A,,Mostly Cloudy,260,2013-02-25 20:35:00
12:55 PM,46.4,35.6,66,30.14,10.0,West,15.0,19.6,N/A,,Mostly Cloudy,260,2013-02-25 20:55:00
1:15 PM,46.4,32.0,57,30.14,10.0,West,16.1,21.9,N/A,,Mostly Cloudy,260,2013-02-25 21:15:00
1:35 PM,48.2,32.0,54,30.15,10.0,West,12.7,21.9,N/A,,Mostly Cloudy,270,2013-02-25 21:35:00
1:55 PM,48.2,32.0,54,30.15,10.0,West,13.8,20.7,N/A,,Scattered Clouds,270,2013-02-25 21:55:00
2:15 PM,48.2,32.0,54,30.15,10.0,WSW,15.0,20.7,N/A,,Mostly Cloudy,250,2013-02-25 22:15:00
2:35 PM,48.2,30.2,50,30.15,10.0,WSW,9.2,18.4,N/A,,Mostly Cloudy,240,2013-02-25 22:35:00
2:55 PM,48.2,28.4,46,30.15,10.0,West,11.5,16.1,N/A,,Mostly Cloudy,260,2013-02-25 22:55:00
3:15 PM,46.4,28.4,50,30.16,10.0,West,15.0,27.6,N/A,,Mostly Cloudy,260,2013-02-25 23:15:00
3:35 PM,46.4,32.0,57,30.17,10.0,WSW,10.4,21.9,N/A,,Mostly Cloudy,250,2013-02-25 23:35:00
3:55 PM,44.6,32.0,61,30.18,10.0,SW,9.2,23.0,N/A,,Mostly Cloudy,230,2013-02-25 23:55:00
4:15 PM,44.6,32.0,61,30.18,10.0,SW,10.4,16.1,N/A,,Mostly Cloudy,230,2013-02-26 00:15:00
4:35 PM,44.6,33.8,66,30.19,10.0,SW,11.5,17.3,N/A,,Overcast,220,2013-02-26 00:35:00
4:55 PM,44.6,35.6,71,30.19,10.0,WSW,12.7,19.6,N/A,,Mostly Cloudy,240,2013-02-26 00:55:00
5:15 PM,41.0,33.8,76,30.19,10.0,SW,8.1,-,N/A,,Mostly Cloudy,230,2013-02-26 01:15:00
5:35 PM,41.0,33.8,76,30.20,10.0,SW,8.1,-,N/A,,Mostly Cloudy,220,2013-02-26 01:35:00
5:55 PM,41.0,35.6,81,30.21,10.0,SW,6.9,-,N/A,,Mostly Cloudy,220,2013-02-26 01:55:00
6:15 PM,41.0,35.6,81,30.22,10.0,SW,8.1,-,N/A,,Scattered Clouds,220,2013-02-26 02:15:00
6:35 PM,39.2,35.6,87,30.23,10.0,SW,8.1,-,N/A,,Mostly Cloudy,220,2013-02-26 02:35:00
6:55 PM,39.2,35.6,87,30.24,10.0,SSW,5.8,-,N/A,,Mostly Cloudy,210,2013-02-26 02:55:00
7:15 PM,39.2,35.6,87,30.24,10.0,SSW,8.1,-,N/A,,Mostly Cloudy,210,2013-02-26 03:15:00
7:35 PM,39.2,35.6,87,30.24,10.0,SSW,9.2,-,N/A,,Scattered Clouds,210,2013-02-26 03:35:00
7:55 PM,39.2,33.8,81,30.25,10.0,SSW,8.1,-,N/A,,Scattered Clouds,210,2013-02-26 03:55:00
8:15 PM,39.2,33.8,81,30.26,10.0,SSW,5.8,-,N/A,,Mostly Cloudy,210,2013-02-26 04:15:00
8:35 PM,39.2,33.8,81,30.27,10.0,SSW,9.2,-,N/A,,Mostly Cloudy,210,2013-02-26 04:35:00
8:55 PM,39.2,33.8,81,30.28,10.0,SSW,6.9,-,N/A,,Scattered Clouds,210,2013-02-26 04:55:00
9:15 PM,39.2,33.8,81,30.28,10.0,SSW,8.1,-,N/A,,Scattered Clouds,200,2013-02-26 05:15:00
9:35 PM,37.4,33.8,87,30.29,10.0,SW,5.8,-,N/A,,Scattered Clouds,220,2013-02-26 05:35:00
9:55 PM,37.4,33.8,87,30.29,10.0,SSW,4.6,-,N/A,,Partly Cloudy,210,2013-02-26 05:55:00
10:15 PM,37.4,33.8,87,30.30,10.0,SSW,4.6,-,N/A,,Mostly Cloudy,200,2013-02-26 06:15:00
10:35 PM,37.4,33.8,87,30.30,10.0,South,4.6,-,N/A,,Mostly Cloudy,190,2013-02-26 06:35:00
10:55 PM,37.4,32.0,81,30.30,10.0,SSW,4.6,-,N/A,,Mostly Cloudy,200,2013-02-26 06:55:00
11:15 PM,37.4,32.0,81,30.31,10.0,SSW,4.6,-,N/A,,Scattered Clouds,200,2013-02-26 07:15:00
11:35 PM,37.4,32.0,81,30.31,10.0,SSW,4.6,-,N/A,,Mostly Cloudy,200,2013-02-26 07:35:00
11:55 PM,37.4,32.0,81,30.31,10.0,SSW,3.5,-,N/A,,Scattered Clouds,200,2013-02-26 07:55:00